Location: Chiroubles
(46.1812°N, 4.6660°E)
Time: 09:19:38
(UTC+00:00)

Tiros 1 - Pass Details

Date: 26 November 2020
Orbit: 630 x 663 km, 48.4° (Epoch: 16 January)

Event Time Altitude Azimuth Distance (km) Brightness Sun altitude
Rises 18:58:01 0° 277° (W) 2,986 11.7 -30.3°
Reaches altitude 10° 19:00:24 10° 280° (W) 2,070 10.6 -30.7°
Enters shadow 19:03:18 36° 292° (WNW) 1,039 8.6 -31.2°
